Weather History for Galena, AK

Change the Weather History Date:

Monday, February 4, 2013

  Actual Average Record
Temperature  
Mean Temperature 1 °F -  
Max Temperature 10 °F 0 °F 40 °F (1982)
Min Temperature -8 °F -16 °F -58 °F (1999)
Degree Days  
Heating Degree Days 64    
Moisture  
Dew Point 0 °F    
Average Humidity 86    
Maximum Humidity 92    
Minimum Humidity 76    
Precipitation  
Precipitation 0.00 in - - ()
Sea Level Pressure  
Sea Level Pressure 29.65 in    
Wind  
Wind Speed 1 mph (North)    
Max Wind Speed 6 mph    
Max Gust Speed -    
Visibility 10 miles    
Events Snow    
Averages and records for this station are not official NWS values.
T = Trace of Precipitation, MM = Missing Value Source: NWS Daily Summary

Daily Weather History Graph

Daily Weather History Graph

Search for Another Location

Airport:

Trip Planner

Search our weather history database for the weather conditions in past years. The results will help you decide how hot, cold, wet, or windy it might be!

Date:

Astronomy

Feb. 04, 2013 Rise Set
Actual Time 10:01 AM AKST 5:23 PM AKST
Civil Twilight 9:04 AM AKST 6:20 PM AKST
Nautical Twilight 8:05 AM AKST 7:19 PM AKST
Astronomical Twilight 7:08 AM AKST 8:16 PM AKST
Moon 5:31 AM AKST (2/4) 11:10 AM AKST (2/4)
Length of Visible Light 9h 15m
Length of Day
7h 21m
Waning Crescent, 35% of the Moon is Illuminated
Feb 4
Waning Crescent
Feb 9
New
Feb 17
First Quarter
Feb 25
Full
Mar 4
Last Quarter

Hourly Weather History & Observations

Time (AKST) Temp. Windchill Dew Point Humidity Pressure Visibility Wind Dir Wind Speed Gust Speed Precip Events Conditions
12:14 AM 6.8 °F - 3.2 °F 85% 29.55 in 10.0 mi Calm Calm - N/A   Overcast
1:58 AM 3.9 °F - -0.0 °F 84% 29.58 in 10.0 mi Calm Calm - N/A   Overcast
2:17 AM 3.2 °F - -0.4 °F 85% 29.57 in 10.0 mi Calm Calm - N/A   Overcast
2:46 AM 1.4 °F - -2.2 °F 85% 29.57 in 10.0 mi Calm Calm - N/A   Scattered Clouds
2:56 AM -0.4 °F - -2.2 °F 92% 29.57 in 10.0 mi Calm Calm - N/A   Mostly Cloudy
2:58 AM -0.0 °F - -2.0 °F 91% 29.60 in 10.0 mi Calm Calm - N/A   Mostly Cloudy
3:07 AM -0.4 °F -8.3 °F -2.2 °F 92% 29.57 in 10.0 mi North 3.5 mph - N/A   Scattered Clouds
3:15 AM 1.4 °F -6.2 °F -2.2 °F 85% 29.58 in 10.0 mi North 3.5 mph - N/A   Mostly Cloudy
3:58 AM -2.0 °F - -5.1 °F 87% 29.61 in 10.0 mi Calm Calm - N/A   Mostly Cloudy
4:07 AM -2.2 °F - -5.8 °F 85% 29.59 in 10.0 mi Calm Calm - N/A   Scattered Clouds
4:39 AM -4.0 °F - -7.6 °F 85% 29.59 in 10.0 mi Calm Calm - N/A   Partly Cloudy
4:58 AM -2.9 °F - -6.0 °F 87% 29.61 in 10.0 mi Calm Calm - N/A   Clear
5:58 AM -6.0 °F - -9.0 °F 87% 29.63 in 10.0 mi Calm Calm - N/A   Clear
6:58 AM -8.0 °F -16.9 °F -11.0 °F 86% 29.64 in 10.0 mi North 3.5 mph - N/A   Scattered Clouds
7:37 AM -7.6 °F - -11.2 °F 84% 29.63 in 10.0 mi Calm Calm - N/A   Overcast
7:58 AM -5.1 °F -13.6 °F -9.0 °F 83% 29.65 in 10.0 mi North 3.5 mph - N/A   Overcast
8:58 AM -0.9 °F - -4.0 °F 87% 29.67 in 10.0 mi Calm Calm - N/A   Overcast
9:58 AM -0.0 °F - -2.9 °F 88% 29.68 in 10.0 mi Calm Calm - N/A   Overcast
10:58 AM 1.0 °F - -2.0 °F 87% 29.69 in 9.0 mi Calm Calm - 0.00 in Snow Light Snow
11:58 AM 3.0 °F - -0.0 °F 87% 29.70 in 10.0 mi Calm Calm - 0.00 in Snow Light Snow
12:58 PM 5.0 °F -2.1 °F 1.9 °F 87% 29.70 in 10.0 mi North 3.5 mph - 0.00 in   Overcast
1:58 PM 7.0 °F 0.1 °F 3.0 °F 84% 29.70 in 10.0 mi Variable 3.5 mph - N/A   Overcast
2:58 PM 9.0 °F 2.4 °F 3.0 °F 77% 29.71 in 10.0 mi North 3.5 mph - N/A   Overcast
3:58 PM 10.0 °F 3.6 °F 3.9 °F 76% 29.71 in 10.0 mi North 3.5 mph - N/A   Overcast
4:58 PM 8.1 °F -0.5 °F 3.9 °F 83% 29.70 in 10.0 mi North 4.6 mph - N/A   Overcast
5:58 PM 8.1 °F -0.5 °F 3.9 °F 83% 29.70 in 9.0 mi North 4.6 mph - N/A   Overcast
6:58 PM 8.1 °F 1.4 °F 3.9 °F 83% 29.70 in 10.0 mi Variable 3.5 mph - N/A   Overcast
7:58 PM 9.0 °F - 5.0 °F 84% 29.70 in 10.0 mi Calm Calm - N/A   Overcast
8:38 PM 8.6 °F 2.0 °F 6.8 °F 92% 29.68 in 10.0 mi North 3.5 mph - N/A   Overcast
8:51 PM 8.6 °F -1.3 °F 6.8 °F 92% 29.68 in 10.0 mi North 5.8 mph - N/A   Overcast
8:58 PM 9.0 °F 0.6 °F 6.1 °F 88% 29.70 in 10.0 mi North 4.6 mph - N/A   Overcast
9:58 PM 10.0 °F 0.4 °F 7.0 °F 87% 29.72 in 10.0 mi North 5.8 mph - N/A   Overcast
10:58 PM 10.0 °F 1.8 °F 7.0 °F 87% 29.72 in 10.0 mi North 4.6 mph - N/A   Overcast
11:04 PM 10.4 °F 2.2 °F 6.8 °F 85% 29.69 in 10.0 mi North 4.6 mph - N/A   Overcast
11:58 PM 10.9 °F 4.7 °F 8.1 °F 88% 29.72 in 10.0 mi North 3.5 mph - N/A   Overcast